Hill City, KS

4:33 AM CST on December 17, 2017 (GMT -0600)
Hill City Municipal

Weather History for KHLC - May, 2012

Change the Weather History Date:

Tuesday, May 15, 2012

  Actual Average Record
Temperature  
Mean Temperature 66 °F 62 °F  
Max Temperature 91 °F 75 °F 97 °F (1931)
Min Temperature 41 °F 50 °F 27 °F (1907)
Cooling Degree Days 2    
Growing Degree Days 16 (Base 50)    
Moisture  
Dew Point 36 °F    
Average Humidity 38    
Maximum Humidity 71    
Minimum Humidity 12    
Precipitation  
Precipitation 0.00 in 0.14 in 0.52 in (2007)
Month to date precipitation T 1.77  
Year to date precipitation 3.87 6.49  
Sea Level Pressure  
Sea Level Pressure 30.02 in    
Wind  
Wind Speed 6 mph (NNW)    
Max Wind Speed 13 mph    
Max Gust Speed 20 mph    
Visibility 10 miles    
Events      
T = Trace of Precipitation, MM = Missing Value Source: NWS Daily Summary

Daily Weather History Graph

Daily Weather History Graph

Search for Another Location

Airport or City:

Trip Planner

Search our weather history database for the weather conditions in past years. The results will help you decide how hot, cold, wet, or windy it might be!

Date:

Astronomy

May. 15, 2012 Rise Set
Actual Time 6:25 AM CDT 8:46 PM CDT
Civil Twilight 5:54 AM CDT 9:17 PM CDT
Nautical Twilight 5:17 AM CDT 9:54 PM CDT
Astronomical Twilight 4:36 AM CDT 10:36 PM CDT
Moon 3:26 AM CDT (5/15) 4:08 PM CDT (5/15)
Length of Visible Light 15h 22m
Length of Day
14h 21m
Waning Crescent, 23% of the Moon is Illuminated
May 15
Waning Crescent
May 20
New
May 28
First Quarter
Jun 4
Full
Jun 11
Last Quarter

Hourly Weather History & Observations

Time (CDT) Temp. Windchill Dew Point Humidity Pressure Visibility Wind Dir Wind Speed Gust Speed Precip Events Conditions
12:53 AM 48.0 °F - 36.0 °F 63% 30.03 in 10.0 mi West 5.8 mph - N/A   Clear
1:53 AM 46.9 °F - 35.1 °F 63% 30.02 in 10.0 mi WNW 3.5 mph - N/A   Clear
2:53 AM 45.0 °F 43.5 °F 35.1 °F 68% 30.01 in 10.0 mi West 3.5 mph - N/A   Clear
3:53 AM 46.0 °F 44.8 °F 34.0 °F 63% 30.01 in 10.0 mi West 3.5 mph - N/A   Clear
4:53 AM 43.0 °F 41.3 °F 34.0 °F 71% 30.01 in 10.0 mi West 3.5 mph - N/A   Clear
5:53 AM 45.0 °F 43.5 °F 33.1 °F 63% 30.02 in 10.0 mi WSW 3.5 mph - N/A   Clear
6:53 AM 46.9 °F - 34.0 °F 61% 30.03 in 10.0 mi West 5.8 mph - N/A   Clear
7:53 AM 53.1 °F - 37.9 °F 57% 30.04 in 10.0 mi West 6.9 mph - N/A   Clear
8:53 AM 64.9 °F - 42.1 °F 43% 30.05 in 10.0 mi WNW 6.9 mph - N/A   Clear
9:53 AM 73.0 °F - 44.1 °F 35% 30.06 in 10.0 mi West 4.6 mph - N/A   Clear
10:53 AM 80.1 °F - 41.0 °F 25% 30.06 in 10.0 mi Calm Calm - N/A   Clear
11:53 AM 86.0 °F - 37.0 °F 18% 30.04 in 10.0 mi NW 5.8 mph - N/A   Clear
12:53 PM 88.0 °F - 34.0 °F 15% 30.03 in 10.0 mi Variable 5.8 mph - N/A   Clear
1:53 PM 89.1 °F - 30.0 °F 12% 30.01 in 10.0 mi NNE 4.6 mph - N/A   Clear
2:53 PM 89.1 °F - 28.9 °F 12% 30.00 in 10.0 mi Calm Calm - N/A   Clear
3:53 PM 90.0 °F - 30.9 °F 12% 29.99 in 10.0 mi North 9.2 mph 17.3 mph N/A   Clear
4:53 PM 90.0 °F - 34.0 °F 14% 29.99 in 10.0 mi Variable 5.8 mph - N/A   Clear
5:53 PM 88.0 °F - 37.9 °F 17% 29.99 in 10.0 mi NNE 12.7 mph 19.6 mph N/A   Clear
6:53 PM 84.9 °F - 39.0 °F 20% 29.99 in 10.0 mi NE 12.7 mph - N/A   Clear
7:53 PM 80.1 °F - 39.0 °F 23% 30.01 in 10.0 mi NE 12.7 mph 19.6 mph N/A   Clear
8:53 PM 72.0 °F - 39.9 °F 31% 30.02 in 10.0 mi NNE 9.2 mph - N/A   Clear
9:53 PM 66.9 °F - 39.0 °F 36% 30.04 in 10.0 mi NNE 10.4 mph - N/A   Clear
10:53 PM 64.9 °F - 37.0 °F 36% 30.06 in 10.0 mi NE 9.2 mph - N/A   Clear
11:53 PM 57.9 °F - 37.0 °F 46% 30.07 in 10.0 mi ENE 5.8 mph - N/A   Clear